| time (UTC) | temp F | wind direction | speed MPH | gust MPH | rain 1hr in | rain 24hr in | rain mn in | humidity % | barometer mb |
| 20260504081714 | 73 | 92 | 5.0 | 10.0 | 0.00 | 0.00 | 0.00 | 47 | 1013.3 |
| 20260504081208 | 72 | 119 | 4.0 | 10.0 | 0.00 | 0.00 | 0.00 | 47 | 1013.3 |
| 20260504080214 | 71 | 90 | 2.0 | 9.0 | 0.00 | 0.00 | 0.00 | 48 | 1013.3 |
| 20260504070215 | 66 | 355 | 3.0 | 6.0 | 0.00 | 0.00 | 0.00 | 56 | 1013.3 |
| 20260504050715 | 55 | 138 | 2.0 | 3.0 | 0.00 | 0.00 | 0.00 | 71 | 1012.8 |
| 20260504045707 | 54 | 138 | 0.0 | 1.0 | 0.00 | 0.00 | 0.00 | 71 | 1012.8 |
| 20260504045217 | 54 | 138 | 0.0 | 1.0 | 0.00 | 0.00 | 0.00 | 71 | 1012.8 |
| 20260504044215 | 54 | 139 | 0.0 | 3.0 | 0.00 | 0.00 | 0.00 | 70 | 1012.7 |
| 20260504043719 | 54 | 139 | 1.0 | 4.0 | 0.00 | 0.00 | 0.00 | 69 | 1012.7 |
| 20260504043215 | 54 | 138 | 2.0 | 5.0 | 0.00 | 0.00 | 0.00 | 69 | 1012.7 |
| 20260504042711 | 54 | 204 | 3.0 | 5.0 | 0.00 | 0.00 | 0.00 | 68 | 1012.6 |
| 20260504041708 | 55 | 245 | 4.0 | 5.0 | 0.00 | 0.00 | 0.00 | 66 | 1012.6 |
| 20260504040707 | 56 | 227 | 2.0 | 3.0 | 0.00 | 0.00 | 0.00 | 64 | 1012.6 |
| 20260504040216 | 57 | 223 | 1.0 | 3.0 | 0.00 | 0.00 | 0.00 | 62 | 1012.6 |
| 20260504035707 | 57 | 233 | 1.0 | 5.0 | 0.00 | 0.00 | 0.00 | 62 | 1012.6 |
| 20260504035215 | 58 | 233 | 1.0 | 5.0 | 0.00 | 0.00 | 0.00 | 61 | 1012.7 |
| 20260504034213 | 58 | 211 | 3.0 | 9.0 | 0.00 | 0.00 | 0.00 | 61 | 1012.6 |
| 20260504033716 | 58 | 246 | 3.0 | 9.0 | 0.00 | 0.00 | 0.00 | 61 | 1012.6 |
| 20260504033219 | 58 | 193 | 4.0 | 10.0 | 0.00 | 0.00 | 0.00 | 61 | 1012.5 |
| 20260504032207 | 58 | 216 | 6.0 | 11.0 | 0.00 | 0.00 | 0.00 | 61 | 1012.4 |
| 20260504031712 | 58 | 169 | 7.0 | 14.0 | 0.00 | 0.00 | 0.00 | 62 | 1012.4 |
| 20260504031211 | 58 | 175 | 7.0 | 14.0 | 0.00 | 0.00 | 0.00 | 62 | 1012.5 |
| 20260504030713 | 58 | 172 | 8.0 | 14.0 | 0.00 | 0.00 | 0.00 | 62 | 1012.5 |
| 20260504025712 | 57 | 170 | 8.0 | 12.0 | 0.00 | 0.00 | 0.00 | 62 | 1012.5 |
| 20260504025210 | 57 | 160 | 8.0 | 12.0 | 0.00 | 0.00 | 0.00 | 62 | 1012.6 |
| 20260504024712 | 57 | 165 | 8.0 | 12.0 | 0.00 | 0.00 | 0.00 | 63 | 1012.5 |
| 20260504024221 | 57 | 154 | 7.0 | 10.0 | 0.00 | 0.00 | 0.00 | 62 | 1012.6 |
| 20260504023706 | 57 | 159 | 4.0 | 7.0 | 0.00 | 0.00 | 0.00 | 62 | 1012.6 |
| 20260504023239 | 58 | 159 | 2.0 | 5.0 | 0.00 | 0.00 | 0.00 | 61 | 1012.6 |
| 20260504022216 | 58 | 184 | 1.0 | 9.0 | 0.00 | 0.00 | 0.00 | 61 | 1012.7 |
| 20260504021212 | 58 | 197 | 5.0 | 11.0 | 0.00 | 0.00 | 0.00 | 61 | 1012.7 |
| 20260504020206 | 58 | 164 | 7.0 | 11.0 | 0.00 | 0.00 | 0.00 | 61 | 1012.6 |
| 20260504015713 | 58 | 163 | 6.0 | 8.0 | 0.00 | 0.00 | 0.00 | 61 | 1012.8 |
| 20260504015215 | 58 | 159 | 4.0 | 7.0 | 0.00 | 0.00 | 0.00 | 60 | 1012.7 |
| 20260504014717 | 59 | 159 | 2.0 | 5.0 | 0.00 | 0.00 | 0.00 | 59 | 1012.7 |
| 20260504014213 | 59 | 171 | 1.0 | 7.0 | 0.00 | 0.00 | 0.00 | 58 | 1012.7 |
| 20260504013707 | 59 | 153 | 2.0 | 10.0 | 0.00 | 0.00 | 0.00 | 58 | 1012.6 |
| 20260504013206 | 60 | 175 | 4.0 | 11.0 | 0.00 | 0.00 | 0.00 | 58 | 1012.6 |
| 20260504012712 | 60 | 151 | 5.0 | 11.0 | 0.00 | 0.00 | 0.00 | 57 | 1012.5 |
| 20260504012212 | 60 | 139 | 6.0 | 11.0 | 0.00 | 0.00 | 0.00 | 57 | 1012.5 |
| 20260504011737 | 60 | 154 | 6.0 | 12.0 | 0.00 | 0.00 | 0.00 | 57 | 1012.3 |
| 20260504011238 | 60 | 184 | 6.0 | 13.0 | 0.00 | 0.00 | 0.00 | 56 | 1012.4 |
| 20260504010710 | 60 | 168 | 7.0 | 15.0 | 0.00 | 0.00 | 0.00 | 56 | 1012.4 |
| 20260504010207 | 61 | 158 | 8.0 | 15.0 | 0.00 | 0.00 | 0.00 | 55 | 1012.4 |
| 20260504005707 | 61 | 164 | 9.0 | 16.0 | 0.00 | 0.00 | 0.00 | 55 | 1012.4 |
| 20260504005214 | 61 | 141 | 10.0 | 16.0 | 0.00 | 0.00 | 0.00 | 55 | 1012.4 |
| 20260504004720 | 61 | 152 | 10.0 | 19.0 | 0.00 | 0.00 | 0.00 | 55 | 1012.4 |
| 20260504004216 | 61 | 178 | 10.0 | 20.0 | 0.00 | 0.00 | 0.00 | 54 | 1012.5 |
| 20260504003707 | 62 | 184 | 10.0 | 20.0 | 0.00 | 0.00 | 0.00 | 54 | 1012.5 |
| 20260504003207 | 62 | 157 | 10.0 | 20.0 | 0.00 | 0.00 | 0.00 | 54 | 1012.5 |
| 20260504002205 | 62 | 173 | 12.0 | 21.0 | 0.00 | 0.00 | 0.00 | 53 | 1012.5 |
| 20260504001707 | 62 | 156 | 11.0 | 21.0 | 0.00 | 0.00 | 0.00 | 52 | 1012.5 |
| 20260504001211 | 62 | 145 | 11.0 | 19.0 | 0.00 | 0.00 | 0.00 | 52 | 1012.5 |
| 20260504000712 | 62 | 184 | 11.0 | 18.0 | 0.00 | 0.00 | 0.00 | 51 | 1012.6 |
| 20260504000219 | 62 | 154 | 11.0 | 18.0 | 0.00 | 0.00 | 0.00 | 51 | 1012.6 |
| 20260503235217 | 62 | 174 | 9.0 | 16.0 | 0.00 | 0.00 | 0.00 | 50 | 1012.7 |
| 20260503234219 | 62 | 153 | 9.0 | 19.0 | 0.00 | 0.00 | 0.00 | 49 | 1012.9 |
| 20260503233713 | 63 | 149 | 11.0 | 19.0 | 0.00 | 0.00 | 0.00 | 49 | 1012.9 |
| 20260503233210 | 63 | 177 | 11.0 | 19.0 | 0.00 | 0.00 | 0.00 | 48 | 1012.9 |
| 20260503232716 | 63 | 169 | 11.0 | 19.0 | 0.00 | 0.00 | 0.00 | 49 | 1012.9 |
| 20260503231705 | 63 | 165 | 11.0 | 22.0 | 0.00 | 0.00 | 0.00 | 49 | 1012.9 |
| 20260503231217 | 63 | 201 | 10.0 | 22.0 | 0.00 | 0.00 | 0.00 | 48 | 1013.0 |
| 20260503230705 | 63 | 223 | 11.0 | 22.0 | 0.00 | 0.00 | 0.00 | 48 | 1012.9 |
| 20260503230212 | 63 | 191 | 11.0 | 23.0 | 0.00 | 0.00 | 0.00 | 49 | 1013.0 |
| 20260503225716 | 63 | 159 | 11.0 | 23.0 | 0.00 | 0.00 | 0.00 | 48 | 1013.0 |
| 20260503224719 | 63 | 166 | 11.0 | 21.0 | 0.00 | 0.00 | 0.00 | 49 | 1013.1 |
| 20260503223712 | 63 | 188 | 12.0 | 21.0 | 0.00 | 0.00 | 0.00 | 49 | 1013.1 |
| 20260503222714 | 63 | 171 | 13.0 | 21.0 | 0.00 | 0.00 | 0.00 | 49 | 1013.1 |
| 20260503222212 | 64 | 166 | 12.0 | 24.0 | 0.00 | 0.00 | 0.00 | 49 | 1013.1 |
| 20260503221707 | 64 | 173 | 12.0 | 24.0 | 0.00 | 0.00 | 0.00 | 49 | 1013.1 |
| 20260503221214 | 64 | 173 | 13.0 | 24.0 | 0.00 | 0.00 | 0.00 | 49 | 1013.2 |
| 20260503220708 | 64 | 206 | 13.0 | 20.0 | 0.00 | 0.00 | 0.00 | 49 | 1013.2 |
| 20260503220217 | 64 | 184 | 12.0 | 20.0 | 0.00 | 0.00 | 0.00 | 49 | 1013.2 |
| 20260503215716 | 64 | 143 | 12.0 | 23.0 | 0.00 | 0.00 | 0.00 | 49 | 1013.2 |
| 20260503215216 | 64 | 197 | 12.0 | 23.0 | 0.00 | 0.00 | 0.00 | 49 | 1013.3 |
| 20260503214719 | 64 | 174 | 12.0 | 23.0 | 0.00 | 0.00 | 0.00 | 49 | 1013.3 |
| 20260503213716 | 64 | 165 | 12.0 | 21.0 | 0.00 | 0.00 | 0.00 | 49 | 1013.3 |
| 20260503213216 | 64 | 164 | 11.0 | 21.0 | 0.00 | 0.00 | 0.00 | 49 | 1013.3 |
| 20260503212716 | 64 | 182 | 11.0 | 20.0 | 0.00 | 0.00 | 0.00 | 49 | 1013.3 |
| 20260503212210 | 64 | 176 | 11.0 | 19.0 | 0.00 | 0.00 | 0.00 | 49 | 1013.4 |
| 20260503211711 | 63 | 212 | 11.0 | 19.0 | 0.00 | 0.00 | 0.00 | 50 | 1013.4 |
| 20260503211209 | 63 | 167 | 11.0 | 19.0 | 0.00 | 0.00 | 0.00 | 50 | 1013.5 |
| 20260503210219 | 62 | 192 | 9.0 | 14.0 | 0.00 | 0.00 | 0.00 | 52 | 1013.4 |
| 20260503205212 | 62 | 159 | 8.0 | 15.0 | 0.00 | 0.00 | 0.00 | 52 | 1013.6 |
| 20260503203719 | 63 | 152 | 9.0 | 12.0 | 0.00 | 0.00 | 0.00 | 51 | 1013.7 |
| 20260503203215 | 63 | 171 | 8.0 | 12.0 | 0.00 | 0.00 | 0.00 | 51 | 1013.7 |
| 20260503202708 | 63 | 156 | 8.0 | 12.0 | 0.00 | 0.00 | 0.00 | 51 | 1013.7 |
| 20260503202215 | 63 | 154 | 8.0 | 14.0 | 0.00 | 0.00 | 0.00 | 51 | 1013.7 |
| 20260503201713 | 63 | 164 | 9.0 | 15.0 | 0.00 | 0.00 | 0.00 | 51 | 1013.7 |
| 20260503201207 | 63 | 171 | 10.0 | 15.0 | 0.00 | 0.00 | 0.00 | 51 | 1013.7 |
| 20260503200706 | 63 | 164 | 10.0 | 15.0 | 0.00 | 0.00 | 0.00 | 51 | 1013.7 |
| 20260503200219 | 64 | 173 | 9.0 | 15.0 | 0.00 | 0.00 | 0.00 | 51 | 1013.7 |
| 20260503195718 | 64 | 190 | 9.0 | 15.0 | 0.00 | 0.00 | 0.00 | 51 | 1013.9 |
| 20260503195218 | 64 | 186 | 9.0 | 14.0 | 0.00 | 0.00 | 0.00 | 50 | 1013.9 |
| 20260503194718 | 64 | 170 | 9.0 | 15.0 | 0.00 | 0.00 | 0.00 | 50 | 1013.9 |
| 20260503194215 | 64 | 178 | 8.0 | 15.0 | 0.00 | 0.00 | 0.00 | 50 | 1014.0 |
| 20260503193710 | 64 | 175 | 8.0 | 16.0 | 0.00 | 0.00 | 0.00 | 49 | 1014.0 |
| 20260503193220 | 65 | 173 | 8.0 | 16.0 | 0.00 | 0.00 | 0.00 | 49 | 1013.9 |
| 20260503192715 | 65 | 166 | 8.0 | 16.0 | 0.00 | 0.00 | 0.00 | 49 | 1013.9 |
| 20260503192214 | 65 | 163 | 8.0 | 12.0 | 0.00 | 0.00 | 0.00 | 49 | 1013.9 |
| 20260503191706 | 65 | 145 | 7.0 | 11.0 | 0.00 | 0.00 | 0.00 | 48 | 1013.9 |
| 20260503191236 | 65 | 168 | 7.0 | 12.0 | 0.00 | 0.00 | 0.00 | 48 | 1013.7 |
| 20260503190707 | 65 | 161 | 7.0 | 12.0 | 0.00 | 0.00 | 0.00 | 48 | 1013.9 |
| 20260503190240 | 66 | 157 | 7.0 | 11.0 | 0.00 | 0.00 | 0.00 | 47 | 1013.7 |
| 20260503185207 | 66 | 156 | 6.0 | 12.0 | 0.00 | 0.00 | 0.00 | 46 | 1013.6 |
| 20260503184709 | 67 | 163 | 7.0 | 12.0 | 0.00 | 0.00 | 0.00 | 46 | 1013.5 |
| 20260503184210 | 67 | 148 | 7.0 | 12.0 | 0.00 | 0.00 | 0.00 | 46 | 1013.5 |
| 20260503183717 | 67 | 168 | 7.0 | 12.0 | 0.00 | 0.00 | 0.00 | 45 | 1013.5 |
| 20260503183213 | 68 | 142 | 7.0 | 15.0 | 0.00 | 0.00 | 0.00 | 45 | 1013.5 |
| 20260503182739 | 68 | 177 | 7.0 | 15.0 | 0.00 | 0.00 | 0.00 | 44 | 1013.5 |
| 20260503182215 | 69 | 139 | 8.0 | 15.0 | 0.00 | 0.00 | 0.00 | 44 | 1013.4 |
| 20260503181716 | 69 | 151 | 7.0 | 13.0 | 0.00 | 0.00 | 0.00 | 43 | 1013.4 |
| 20260503181213 | 69 | 152 | 7.0 | 13.0 | 0.00 | 0.00 | 0.00 | 43 | 1013.3 |
| 20260503180714 | 70 | 162 | 7.0 | 17.0 | 0.00 | 0.00 | 0.00 | 42 | 1013.3 |
| 20260503180209 | 70 | 148 | 8.0 | 17.0 | 0.00 | 0.00 | 0.00 | 41 | 1013.2 |
| 20260503175708 | 71 | 146 | 9.0 | 17.0 | 0.00 | 0.00 | 0.00 | 41 | 1013.2 |
| 20260503175211 | 71 | 164 | 8.0 | 13.0 | 0.00 | 0.00 | 0.00 | 40 | 1013.2 |
| 20260503174720 | 71 | 142 | 8.0 | 13.0 | 0.00 | 0.00 | 0.00 | 40 | 1013.2 |
| 20260503174206 | 72 | 181 | 8.0 | 17.0 | 0.00 | 0.00 | 0.00 | 39 | 1013.1 |
| 20260503173708 | 72 | 158 | 8.0 | 17.0 | 0.00 | 0.00 | 0.00 | 39 | 1013.1 |
| 20260503173211 | 72 | 174 | 9.0 | 17.0 | 0.00 | 0.00 | 0.00 | 38 | 1013.1 |
| 20260503172720 | 73 | 149 | 9.0 | 16.0 | 0.00 | 0.00 | 0.00 | 38 | 1013.0 |
| 20260503172216 | 73 | 140 | 9.0 | 16.0 | 0.00 | 0.00 | 0.00 | 38 | 1013.0 |
| 20260503171711 | 74 | 175 | 10.0 | 17.0 | 0.00 | 0.00 | 0.00 | 38 | 1013.0 |
| 20260503171217 | 74 | 182 | 10.0 | 17.0 | 0.00 | 0.00 | 0.00 | 37 | 1013.1 |
| 20260503170714 | 74 | 159 | 11.0 | 23.0 | 0.00 | 0.00 | 0.00 | 37 | 1013.0 |
| 20260503170212 | 74 | 169 | 11.0 | 23.0 | 0.00 | 0.00 | 0.00 | 36 | 1013.0 |
| 20260503150213 | 78 | 167 | 13.0 | 21.0 | 0.00 | 0.00 | 0.00 | 33 | 1013.4 |
| 20260503140209 | 80 | 193 | 12.0 | 19.0 | 0.00 | 0.00 | 0.00 | 33 | 1013.7 |
| 20260503130712 | 79 | 161 | 12.0 | 20.0 | 0.00 | 0.00 | 0.00 | 32 | 1014.5 |
| 20260503130210 | 79 | 165 | 11.0 | 20.0 | 0.00 | 0.00 | 0.00 | 33 | 1014.5 |
| 20260503120214 | 78 | 193 | 12.0 | 24.0 | 0.00 | 0.00 | 0.00 | 34 | 1015.2 |
| 20260503110718 | 77 | 171 | 13.0 | 23.0 | 0.00 | 0.00 | 0.00 | 34 | 1015.7 |
| 20260503100220 | 74 | 175 | 12.0 | 27.0 | 0.00 | 0.00 | 0.00 | 41 | 1016.2 |